Date String (YYYY-MM-DD hh:mm:ss) UTC,Instrument flags,Ambient pressure (hPa),Sample flow (lpm),Bypass flow (lpm),Sample temperature (°C),Ambient temperature (°C),ASC tube jacket temperature (°C),LED temperature (°C),Box temperature (°C),Sample RH (%),Span deviation,Mass concentration (μg/m³),Mass concentration (μg/m³),Mass concentration (μg/m³)
DateTimeUTC,F1_M11,P_M11,Q1_M11,Q2_M11,T1_M11,T2_M11,T3_M11,T4_M11,T5_M11,U1_M11,ZSPAN_M11,X0_M11,X2_M11,X1_M11
2022-08-09 04:00:00,,0829.9,5.01,0.00,29.6,27.9,00.0,38.2,31.4,29.8,0000.0,0010.68,0005.24,0004.60
2022-08-09 04:01:00,,0829.9,4.99,0.00,29.5,27.3,00.0,38.2,31.2,29.2,0000.0,0010.64,0005.25,0004.59
2022-08-09 04:02:00,,0829.9,5.00,0.00,29.4,27.1,00.0,38.2,31.2,29.0,0000.0,0010.41,0005.20,0004.59
2022-08-09 04:03:00,,0829.9,5.01,0.00,29.3,27.1,00.0,38.2,31.1,28.7,0000.0,0010.40,0005.22,0004.58
2022-08-09 04:04:00,,0829.9,5.01,0.00,29.3,27.2,00.0,38.1,31.1,28.6,0000.0,0010.33,0005.22,0004.57
2022-08-09 04:05:00,,0829.9,4.99,0.00,29.3,27.4,00.0,38.1,31.2,28.9,0000.0,0010.28,0005.19,0004.55
2022-08-09 04:06:00,,0829.8,5.00,0.00,29.3,27.6,00.0,38.1,31.2,28.6,0000.0,0011.17,0005.19,0004.56
2022-08-09 04:07:00,,0829.8,4.99,0.00,29.3,27.8,00.0,38.2,31.3,28.6,0000.0,0011.62,0005.20,0004.55
2022-08-09 04:08:00,,0829.8,5.01,0.00,29.4,28.0,00.0,38.2,31.3,28.5,0000.0,0011.44,0005.21,0004.54
2022-08-09 04:09:00,,0829.8,5.00,0.00,29.4,28.1,00.0,38.2,31.4,28.2,0000.0,0011.10,0005.22,0004.53
2022-08-09 04:10:00,,0829.8,4.99,0.00,29.4,28.3,00.0,38.2,31.4,28.1,0000.0,0010.52,0005.23,0004.51
2022-08-09 04:11:00,,0829.8,5.01,0.00,29.5,28.4,00.0,38.2,31.5,28.2,0000.0,0010.39,0005.16,0004.49
2022-08-09 04:12:00,,0829.8,5.00,0.00,29.5,28.5,00.0,38.2,31.5,27.9,0000.0,0010.40,0005.15,0004.49
2022-08-09 04:13:00,,0829.8,5.00,0.00,29.6,28.6,00.0,38.3,31.6,27.8,0000.0,0010.35,0005.14,0004.49
2022-08-09 04:14:00,,0829.8,5.00,0.00,29.6,28.5,00.0,38.3,31.6,27.8,0000.0,0010.31,0005.11,0004.49
2022-08-09 04:15:00,,0829.8,5.00,0.00,29.6,27.8,00.0,38.2,31.4,28.5,0000.0,0010.32,0005.09,0004.49
2022-08-09 04:16:00,,0829.8,5.00,0.00,29.5,27.2,00.0,38.2,31.2,28.5,0000.0,0010.36,0005.13,0004.51
2022-08-09 04:17:00,,0829.9,5.00,0.00,29.4,27.0,00.0,38.2,31.2,28.3,0000.0,0009.62,0005.12,0004.51
2022-08-09 04:18:00,,0829.9,5.00,0.00,29.3,27.1,00.0,38.2,31.0,28.1,0000.0,0009.25,0005.07,0004.51
2022-08-09 04:19:00,,0829.8,5.01,0.00,29.3,27.2,00.0,38.2,31.1,28.4,0000.0,0009.17,0005.04,0004.50
2022-08-09 04:20:00,,0829.9,5.00,0.00,29.3,27.4,00.0,38.2,31.1,28.2,0000.0,0009.06,0005.02,0004.50
2022-08-09 04:21:00,,0829.9,5.01,0.00,29.3,27.6,00.0,38.2,31.2,28.3,0000.0,0008.89,0005.02,0004.51
2022-08-09 04:22:00,,0829.9,5.00,0.00,29.3,27.8,00.0,38.2,31.3,28.3,0000.0,0008.88,0005.02,0004.51
2022-08-09 04:23:00,,0829.8,5.00,0.00,29.4,28.0,00.0,38.2,31.3,28.4,0000.0,0008.86,0005.02,0004.51
2022-08-09 04:24:00,,0829.8,5.00,0.00,29.4,28.1,00.0,38.2,31.4,28.3,0000.0,0008.97,0005.05,0004.52
2022-08-09 04:25:00,,0830.1,5.00,0.00,29.4,28.3,00.0,38.2,31.4,28.3,0000.0,0009.05,0005.06,0004.52
2022-08-09 04:26:00,,0829.9,5.00,0.00,29.5,28.4,00.0,38.2,31.5,28.2,0000.0,0009.05,0005.05,0004.52
2022-08-09 04:27:00,,0829.9,5.00,0.00,29.5,28.5,00.0,38.3,31.5,28.2,0000.0,0009.02,0005.03,0004.51
2022-08-09 04:28:00,,0829.8,5.00,0.00,29.6,28.6,00.0,38.3,31.6,28.0,0000.0,0008.64,0005.05,0004.50
2022-08-09 04:29:00,,0829.8,5.00,0.00,29.6,28.7,00.0,38.3,31.6,27.9,0000.0,0008.46,0005.05,0004.51
2022-08-09 04:30:00,,0829.8,5.00,0.00,29.6,28.3,00.0,38.3,31.5,27.9,0000.0,0008.60,0005.05,0004.51
2022-08-09 04:31:00,,0829.9,5.01,0.00,29.6,27.5,00.0,38.3,31.3,28.0,0000.0,0008.64,0005.03,0004.49
2022-08-09 04:32:00,,0829.8,5.00,0.00,29.5,27.1,00.0,38.2,31.2,28.0,0000.0,0008.65,0004.99,0004.48
2022-08-09 04:33:00,,0829.9,5.00,0.00,29.4,27.0,00.0,38.2,31.1,28.1,0000.0,0008.69,0004.98,0004.46
2022-08-09 04:34:00,,0829.8,4.99,0.00,29.3,27.2,00.0,38.2,31.1,28.3,0000.0,0008.83,0004.98,0004.44
2022-08-09 04:35:00,,0829.8,5.01,0.00,29.3,27.3,00.0,38.2,31.1,28.3,0000.0,0008.82,0004.96,0004.42
2022-08-09 04:36:00,,0829.9,4.99,0.00,29.3,27.5,00.0,38.2,31.2,28.3,0000.0,0008.78,0004.95,0004.40
2022-08-09 04:37:00,,0829.8,5.01,0.00,29.4,27.7,00.0,38.2,31.3,28.5,0000.0,0008.85,0004.93,0004.38
2022-08-09 04:38:00,,0829.9,5.00,0.00,29.4,27.9,00.0,38.2,31.3,28.5,0000.0,0008.85,0004.94,0004.37
2022-08-09 04:39:00,,0829.9,5.00,0.00,29.4,28.0,00.0,38.2,31.4,28.3,0000.0,0008.88,0004.96,0004.37
2022-08-09 04:40:00,,0829.9,4.99,0.00,29.4,28.2,00.0,38.2,31.4,28.1,0000.0,0008.95,0004.99,0004.37
2022-08-09 04:41:00,,0829.9,5.00,0.00,29.5,28.3,00.0,38.2,31.5,28.0,0000.0,0009.57,0005.03,0004.37
2022-08-09 04:42:00,,0829.9,4.99,0.00,29.5,28.4,00.0,38.3,31.5,28.1,0000.0,0009.57,0005.08,0004.39
2022-08-09 04:43:00,,0829.9,5.00,0.00,29.6,28.6,00.0,38.3,31.6,28.3,0000.0,0009.60,0005.13,0004.41
2022-08-09 04:44:00,,0829.9,5.01,0.00,29.6,28.7,00.0,38.3,31.6,28.3,0000.0,0009.52,0005.13,0004.41
2022-08-09 04:45:00,,0829.8,5.01,0.00,29.6,28.6,00.0,38.3,31.6,28.1,0000.0,0009.41,0005.13,0004.43
2022-08-09 04:46:00,,0829.8,4.99,0.00,29.6,27.8,00.0,38.3,31.4,28.1,0000.0,0009.32,0005.12,0004.45
2022-08-09 04:47:00,,0829.8,5.01,0.00,29.5,27.2,00.0,38.3,31.2,28.1,0000.0,0009.21,0005.10,0004.47
2022-08-09 04:48:00,,0829.8,5.00,0.00,29.5,27.0,00.0,38.2,31.2,28.2,0000.0,0009.02,0005.09,0004.47
2022-08-09 04:49:00,,0829.8,4.99,0.00,29.4,27.1,00.0,38.2,31.1,28.4,0000.0,0009.26,0005.07,0004.47
2022-08-09 04:50:00,,0829.8,5.01,0.00,29.3,27.2,00.0,38.2,31.1,28.5,0000.0,0009.64,0005.03,0004.48
2022-08-09 04:51:00,,0829.8,5.00,0.00,29.3,27.4,00.0,38.2,31.2,28.4,0000.0,0009.82,0005.02,0004.48
2022-08-09 04:52:00,,0829.8,4.99,0.00,29.3,27.6,00.0,38.2,31.2,28.5,0000.0,0009.84,0005.01,0004.48
2022-08-09 04:53:00,,0829.8,5.00,0.00,29.4,27.8,00.0,38.2,31.3,28.4,0000.0,0009.86,0005.00,0004.47
2022-08-09 04:54:00,,0829.8,5.00,0.00,29.4,27.9,00.0,38.2,31.3,28.4,0000.0,0009.83,0004.97,0004.46
2022-08-09 04:55:00,,0829.8,5.01,0.00,29.4,28.1,00.0,38.2,31.4,28.7,0000.0,0009.87,0004.98,0004.47
2022-08-09 04:56:00,,0829.8,5.00,0.00,29.4,28.2,00.0,38.2,31.4,28.4,0000.0,0009.95,0004.98,0004.46
2022-08-09 04:57:00,,0829.8,4.98,0.00,29.5,28.3,00.0,38.2,31.5,28.2,0000.0,0010.08,0005.02,0004.46
2022-08-09 04:58:00,,0829.8,5.00,0.00,29.5,28.5,00.0,38.2,31.5,28.3,0000.0,0010.60,0005.06,0004.45
2022-08-09 04:59:00,,0829.8,5.00,0.00,29.5,28.5,00.0,38.3,31.5,28.5,0000.0,0011.12,0005.13,0004.46
